This demonstration page uses our WeatherBlox Daily Observations layout. Learn more.

Left ArrowRight Arrow

39.51506, -84.39828

Hourly Observations for May 16, 2020

Temp ( °F °C ) Dew Point ( °F °C ) Humidity (%) Winds ( mph kmh ) Pressure ( in mb ) Visibility ( mi km ) Precip ( " mm )
12:15 am 00:15 undefined 57 14 N/A N/A Calm 30.03 1017 N/A 0 0
12:35 am 00:35 undefined 59 15 N/A N/A Calm 30.03 1017 N/A 0 0
12:55 am 00:55 undefined 59 15 N/A N/A Calm 30.03 1017 N/A 0 0
1:15 am 01:15 undefined 57 14 N/A N/A Calm 30.03 1017 N/A 0 0
1:35 am 01:35 undefined 59 15 N/A N/A Calm 30.02 1016 N/A 0 0
1:55 am 01:55 undefined 57 14 N/A N/A Calm 30.02 1017 N/A 0 0
2:15 am 02:15 undefined 57 14 N/A N/A Calm 30.02 1017 N/A 0 0
2:35 am 02:35 undefined 57 14 N/A N/A Calm 30.02 1017 N/A 0 0
2:55 am 02:55 undefined 57 14 N/A N/A Calm 30.02 1017 N/A 0 0
3:15 am 03:15 undefined 57 14 N/A N/A Calm 30.02 1017 N/A 0 0
3:35 am 03:35 undefined 57 14 N/A N/A Calm 30.03 1017 N/A 0 0
3:55 am 03:55 undefined 57 14 N/A N/A Calm 30.02 1017 N/A 0 0
4:15 am 04:15 undefined 57 14 N/A N/A Calm 30.02 1017 N/A 0 0
4:35 am 04:35 undefined 57 14 N/A N/A Calm 30.02 1017 N/A 0 0
4:55 am 04:55 undefined 57 14 N/A N/A Calm 30.03 1017 N/A 0 0
5:15 am 05:15 undefined 57 14 N/A N/A Calm 30.04 1017 N/A 0 0
5:35 am 05:35 undefined 57 14 N/A N/A Calm 30.04 1017 N/A 0 0
5:55 am 05:55 undefined 57 14 N/A N/A NE 3 6 30.05 1018 N/A 0 0
6:15 am 06:15 Cloudy 57 14 N/A N/A ENE 3 6 30.05 1018 N/A 0 0
6:35 am 06:35 Cloudy 59 15 N/A N/A Calm 30.05 1017 N/A 0 0
6:55 am 06:55 Cloudy 59 15 N/A N/A Calm 30.05 1017 N/A 0 0
7:15 am 07:15 undefined 59 15 N/A N/A Calm 30.06 1018 N/A 0 0
7:35 am 07:35 undefined 59 15 N/A N/A Calm 30.07 1018 N/A 0 0
7:55 am 07:55 undefined 61 16 N/A N/A Calm 30.06 1018 N/A 0 0
8:15 am 08:15 undefined 61 16 N/A N/A Calm 30.07 1018 N/A 0 0
8:35 am 08:35 undefined 62 16.8 62 16.6 99 99 Calm 30.08 1019 N/A 0 0
8:55 am 08:55 undefined 63 17.3 62 16.9 98 98 Calm 30.08 1019 N/A 0 0
9:15 am 09:15 undefined 64 17.6 62 16.8 95 95 ENE 3 6 30.08 1019 N/A 0 0
9:35 am 09:35 Cloudy 64 17.9 62 16.9 94 94 NE 5 7 30.09 1019 N/A 0 0
9:55 am 09:55 Cloudy 67 19.4 63 17.1 87 87 ESE 3 6 30.09 1019 N/A 0 0
10:15 am 10:15 Cloudy 69 20.6 62 16.4 77 77 SSE 6 9 30.07 1018 N/A 0 0
10:35 am 10:35 Cloudy 69 20.8 61 16.3 76 76 SSE 7 11 30.07 1018 N/A 0 0
10:55 am 10:55 Partly Cloudy 71 21.4 62 16.4 73 73 SE 6 9 30.06 1018 N/A 0 0
11:15 am 11:15 Sunny 73 23 62 16.9 69 69 SSE 10 17 30.05 1018 N/A 0 0
11:35 am 11:35 Partly Cloudy 72 22.4 61 16.3 69 69 SE 7 11 30.06 1018 N/A 0 0
11:55 am 11:55 Cloudy 73 22.8 62 16.8 69 69 SE 10 17 30.06 1018 N/A 0 0
12:15 pm 12:15 Cloudy 75 23.8 63 17.4 67 67 ESE 10 17 30.06 1018 N/A 0 0
12:35 pm 12:35 Cloudy 74 23.5 63 17.3 68 68 E 9 15 30.06 1018 N/A 0 0
12:55 pm 12:55 Mostly Cloudy 73 23 63 17.2 70 70 ESE 8 13 30.05 1018 N/A 0 0
1:15 pm 13:15 Mostly Cloudy 74 23.1 63 17.4 70 70 ESE 5 7 30.05 1018 N/A 0 0
1:35 pm 13:35 Cloudy 74 23.1 63 17.2 70 70 Calm 30.04 1017 N/A 0 0
1:55 pm 13:55 Cloudy 74 23.3 64 17.7 71 71 ESE 7 11 30.04 1017 N/A 0 0
2:15 pm 14:15 Cloudy 74 23.4 63 17.4 69 69 S 3 6 30.04 1017 N/A 0 0
2:35 pm 14:35 Cloudy 75 23.7 63 17.2 67 67 Calm 30.03 1017 N/A 0 0
2:55 pm 14:55 Cloudy 75 24 63 17.2 66 66 Calm 30.03 1017 N/A 0 0
3:15 pm 15:15 Cloudy 75 23.8 63 17.4 67 67 ENE 5 7 30.03 1017 N/A 0 0
3:35 pm 15:35 Cloudy 74 23.4 63 17.2 68 68 E 6 9 30.02 1016 N/A 0 0
3:55 pm 15:55 Mostly Cloudy 71 21.9 64 18 79 79 E 6 9 30.02 1017 N/A 0 0
4:15 pm 16:15 Cloudy 70 21 66 18.7 87 87 N 8 13 30.03 1017 N/A 0 0
4:35 pm 16:35 undefined 71 21.5 66 19 86 86 NNE 7 11 30.02 1017 N/A 0 0
4:55 pm 16:55 Mostly Cloudy 71 21.7 66 19 85 85 NE 7 11 30.02 1017 N/A 0 0
5:15 pm 17:15 Mostly Cloudy 72 22.2 67 19.2 83 83 ENE 7 11 30.02 1017 N/A 0 0
5:35 pm 17:35 Mostly Cloudy 73 22.7 65 18.1 75 75 ENE 7 11 30.01 1016 N/A 0 0
5:55 pm 17:55 Mostly Cloudy 72 22.4 64 18 76 76 NE 8 13 30 1016 N/A 0 0
6:15 pm 18:15 Cloudy 73 22.6 65 18.5 78 78 ENE 9 15 30 1016 N/A 0 0
6:35 pm 18:35 Partly Cloudy 73 22.9 64 17.5 72 72 ESE 13 20 30 1016 N/A 0 0
6:55 pm 18:55 Sunny 74 23.1 64 17.5 71 71 E 9 15 29.99 1015 N/A 0 0
7:15 pm 19:15 Sunny 74 23.2 63 17 68 68 E 13 20 29.99 1015 N/A 0 0
7:35 pm 19:35 Sunny 73 22.8 62 16.8 69 69 E 13 20 29.99 1016 N/A 0 0
7:55 pm 19:55 Partly Cloudy 72 22.3 62 16.9 72 72 ESE 7 11 29.99 1016 N/A 0 0
8:15 pm 20:15 Sunny 71 21.9 62 16.9 73 73 E 7 11 29.99 1016 N/A 0 0
8:35 pm 20:35 Sunny 70 21 62 16.9 78 78 E 5 7 30 1016 N/A 0 0
8:55 pm 20:55 Clear 68 20.1 62 16.9 82 82 ENE 5 7 30 1016 N/A 0 0
9:15 pm 21:15 Clear 68 19.8 62 16.6 82 82 ENE 5 7 30 1016 N/A 0 0
9:35 pm 21:35 undefined 66 18.8 62 16.6 87 87 Calm 30.01 1016 N/A 0 0
9:55 pm 21:55 undefined 64 17.5 62 16.7 95 95 N 3 6 30.01 1016 N/A 0 0
10:15 pm 22:15 undefined 65 18.6 62 16.8 89 89 N 3 6 30.02 1017 N/A 0 0
10:35 pm 22:35 undefined 65 18.3 62 16.7 90 90 Calm 30.02 1017 N/A 0 0
10:55 pm 22:55 undefined 65 18.1 62 16.7 92 92 NNE 5 7 30.02 1017 N/A 0 0
11:15 pm 23:15 undefined 66 19 62 16.7 87 87 NE 3 6 30.02 1016 N/A 0 0
11:35 pm 23:35 undefined 66 18.8 62 16.6 87 87 NNE 3 6 30.02 1017 N/A 0 0
11:55 pm 23:55 Mostly Cloudy 66 19 62 16.7 87 87 NE 3 6 30.01 1016 N/A 0 0

Powered by AerisWeather